User: anonymous   Login
Location: Unspecified
(0.0000°N, 0.0000°E)
Time: 20:31:55
(UTC+00:00)
Language:

Oscar 10/S400 - Orbit

View from above orbital plane
View from above orbital plane
View from above satellite
View from above satellite

Ground track
Ground track

The orbit data is extracted from the following two-line orbital elements,

1 14129U 83058B   19313.94013418 -.00000260 +00000-0 +00000-0 0  9997
2 14129 026.3794 253.8146 6023439 180.2673 179.2762 02.05870085245867
Epoch (UTC): 09 November 2019 22:33:47
Eccentricity: 0.6023439
inclination: 26.3794°
perigee height: 4001 km
apogee height: 35446 km
right ascension of ascending node: 253.8146°
argument of perigee: 180.2673°
revolutions per day: 2.05870085
mean anomaly at epoch: 179.2762°
orbit number at epoch: 24586

The dashed part of the orbit path shows where the satellite is in the earth's shadow,  

DLR